Tracking 20623 objects as of 5-Apr-2020
HD Live streaming from Space Station
objects crossing your sky now

CREW DRAGON DEMO-1 DEB

Track CREW DRAGON DEMO-1 DEB now!
10-day predictions


NORAD ID: 44064
Int'l Code: 2019-011B
Perigee: 382.4 km
Apogee: 388.5 km
Inclination: 51.6 °
Period: 92.1 minutes
Semi major axis: 6756 km
RCS: Unknown
Launch date: March 2, 2019
Source: United States (US)
Launch site: AIR FORCE EASTERN TEST RANGE (AFETR)

Note: This is SATELLITE DEBRIS
aabbcc
Your satellite tracking list
Your tracking list is empty




NASA's NSSDC Master Catalog

Two Line Element Set (TLE):
1 44064U 19011B   20095.35601660  .00014134  00000-0  15670-3 0  9998
2 44064  51.6408 327.4499 0004557 132.4550 227.6749 15.63242271 61314
Source of the keplerian elements: AFSPC